GFSSE_925_temp_003.txt.gz
Temp
18 19 18 18 19 19 20 19 20 20 19 20 20 20 20 20 20 20 21 21 21 21 20 21 21 21 21 21 21 21 21 20 19 19 20 20 20 20 20 19 19 19 18
18 18 18 18 19 19 20 19 19 19 19 19 20 20 20 20 20 20 20 20 18 19 20 20 21 20 20 20 19 20 21 20 20 19 19 19 19 19 19 19 19 18 18
19 19 18 18 18 19 19 19 19 19 19 19 19 19 19 20 20 20 20 20 20 18 18 19 19 19 19 20 21 20 20 21 19 19 19 19 19 19 19 19 18 18 18
18 19 19 19 19 19 19 19 19 19 19 19 19 19 19 19 19 18 18 19 18 18 17 18 18 19 19 19 20 20 21 20 19 19 19 19 18 18 18 18 18 18 18
20 19 19 20 19 19 19 19 19 19 19 19 18 18 18 18 18 18 18 18 18 18 17 18 18 18 18 18 19 19 20 20 22 19 19 19 19 18 18 18 18 18 18
19 19 20 20 20 20 20 20 20 20 20 19 19 18 18 18 17 17 17 18 17 17 16 17 17 17 18 18 18 18 18 18 19 18 18 18 18 18 18 18 18 18 18
20 20 20 20 20 20 20 19 19 19 19 18 18 18 18 18 18 18 18 18 17 17 17 17 16 17 18 18 17 17 18 18 17 17 18 18 17 18 18 18 18 18 18
21 20 20 20 20 21 20 20 19 19 18 18 18 18 18 18 18 18 17 17 17 17 17 17 17 16 17 16 16 17 17 17 17 17 18 18 18 18 18 17 18 18 17
21 21 20 20 20 20 20 20 19 19 19 18 18 18 17 17 17 17 16 16 16 17 17 16 16 15 15 15 16 16 16 16 17 17 17 17 18 18 18 17 17 18 17
20 20 20 19 19 19 19 19 18 18 18 18 18 17 17 17 16 16 16 15 15 16 16 15 15 14 14 15 16 16 15 15 15 16 17 17 17 18 18 17 17 17 17
19 20 19 19 19 19 19 18 18 18 18 18 17 17 16 16 16 15 15 15 15 15 15 15 15 15 15 15 15 15 15 15 15 16 16 16 16 17 17 18 17 17 17
19 20 19 19 19 18 18 18 18 18 18 17 17 17 16 16 16 16 16 16 16 15 15 15 15 15 15 15 15 15 15 15 15 14 15 15 15 16 16 16 16 16 16
21 20 20 20 19 18 18 18 18 18 18 17 17 17 16 16 16 16 15 15 15 15 15 15 14 14 14 14 14 14 14 15 15 15 14 14 14 15 15 15 16 16 16
20 20 20 19 18 18 18 18 18 18 17 17 17 16 16 16 16 16 15 14 14 14 14 14 14 14 13 13 13 13 13 13 13 14 14 14 14 14 15 15 15 16 16
21 21 20 20 19 19 19 18 18 17 17 17 16 16 16 16 16 15 14 14 13 13 13 13 13 13 13 13 13 13 13 13 12 13 13 13 14 14 14 14 15 15 15
21 22 21 20 19 19 18 18 18 17 17 16 16 16 16 16 16 15 15 14 13 13 13 13 13 13 13 13 13 13 12 12 12 12 13 13 13 14 14 14 14 14 14
22 22 21 20 19 19 19 18 18 17 17 17 16 16 16 16 15 15 15 14 14 13 13 13 13 13 13 13 13 13 13 13 12 12 12 13 13 14 14 14 13 14 15
22 21 20 19 20 19 18 18 18 17 17 17 17 16 16 16 15 15 14 14 14 14 14 13 13 13 13 13 13 12 12 12 12 12 12 12 12 13 14 13 13 13 13
21 20 20 20 20 19 18 18 18 17 17 17 16 16 16 15 15 15 15 14 14 14 14 14 13 13 13 13 12 12 12 12 12 12 12 12 12 12 12 12 12 13 13
20 20 21 20 20 19 19 18 18 18 17 17 17 17 16 15 15 15 15 14 14 14 14 13 13 13 13 12 12 12 12 12 12 12 12 11 12 12 12 12 12 12 12
20 20 21 20 20 19 19 18 18 18 18 17 17 17 17 17 16 15 15 15 14 14 14 13 13 12 12 12 11 11 11 12 11 11 11 11 11 11 11 11 12 12 12
20 20 20 21 20 20 20 20 19 18 18 18 17 17 17 16 16 15 15 15 15 14 13 13 13 12 12 11 10 8 6 9 10 10 10 10 10 10 10 10 11 11 11
20 20 20 21 20 20 19 19 18 18 17 17 18 17 17 16 16 15 15 15 15 14 14 13 13 12 11 10 10 9 6 5 5 9 9 9 9 9 9 9 10 10 10
20 20 20 19 19 18 17 17 17 16 15 16 17 17 17 17 16 16 15 15 14 14 13 13 12 11 11 9 9 8 8 8 4 4 8 8 8 7 8 8 8 9 10
19 19 18 18 18 17 17 17 16 16 16 16 15 15 15 15 14 15 15 14 13 13 12 11 10 10 9 9 9 8 7 7 6 4 4 6 6 6 6 7 8 8 9
17 17 17 17 16 16 15 16 15 15 16 14 15 15 15 14 14 13 13 12 12 10 9 8 8 7 7 7 7 7 7 6 5 4 2 4 4 5 6 6 7 7 8

GFSSE_925_temp_006.txt.gz
Temp
18 18 18 19 19 20 20 20 19 19 20 20 20 20 20 20 20 20 19 19 18 18 19 19 19 20 20 20 20 21 21 20 21 21 20 20 20 20 20 20 19 19 19
18 17 18 18 19 19 20 19 19 19 20 20 20 20 20 20 19 19 19 18 18 18 19 19 19 19 20 20 20 20 20 21 20 20 21 21 20 19 19 20 20 19 19
19 18 18 18 18 19 19 19 19 19 19 20 19 19 19 19 19 18 18 19 19 18 19 18 19 19 19 19 19 20 20 20 20 19 19 20 20 19 19 19 19 19 19
19 18 18 18 18 19 19 19 19 19 19 19 19 19 19 18 18 18 19 18 18 18 18 18 18 17 17 17 17 18 18 18 19 19 19 19 19 19 18 18 18 19 19
19 19 19 18 19 19 19 19 20 19 20 19 19 19 18 18 17 18 18 18 18 18 18 18 17 16 17 18 17 18 18 17 18 18 18 18 18 18 18 18 18 18 18
19 20 19 20 20 20 20 20 20 20 20 19 19 19 18 18 18 18 18 18 17 17 17 16 15 16 16 16 16 16 17 17 17 18 18 18 18 18 18 18 18 18 18
20 20 20 21 21 21 21 21 20 19 19 19 19 18 18 18 18 18 17 17 17 16 16 16 15 16 15 15 15 16 16 16 16 17 17 18 18 18 17 18 18 18 18
20 20 20 20 20 20 20 19 19 19 19 18 18 17 17 17 17 17 16 17 16 16 16 16 16 16 16 15 15 16 16 16 16 17 17 18 18 18 18 18 18 18 18
19 20 20 20 20 20 20 19 19 19 19 18 18 17 17 17 17 17 16 16 16 16 16 16 16 16 15 15 15 15 15 15 15 16 16 17 17 17 17 18 18 18 17
20 19 20 20 19 19 19 19 19 19 18 18 17 17 17 17 17 17 17 17 16 16 16 16 15 15 15 15 15 15 15 15 15 16 15 15 16 16 17 17 17 17 17
19 19 19 19 19 19 19 19 19 18 18 18 17 17 17 17 17 16 16 16 16 16 16 16 15 15 15 15 15 15 14 14 15 15 15 15 15 15 15 16 17 17 17
19 19 19 19 19 18 18 18 18 18 18 18 17 17 17 16 16 16 16 16 16 15 15 15 15 15 15 15 15 15 15 14 14 14 14 14 15 15 15 15 15 16 16
20 19 20 20 19 19 18 18 18 18 18 17 17 17 16 16 16 16 16 15 15 15 14 14 14 14 14 14 14 15 15 14 14 13 13 14 14 15 15 15 15 15 15
20 20 20 20 20 19 18 18 18 18 17 17 17 16 16 16 16 16 16 15 15 14 14 14 13 13 13 13 14 14 14 14 14 13 13 13 13 13 15 15 14 14 15
20 20 20 20 19 19 18 18 18 17 17 17 17 16 16 16 16 16 16 15 14 14 14 13 13 13 13 13 13 13 13 13 13 13 13 13 13 13 13 14 15 14 14
20 20 20 20 19 18 18 18 18 17 17 17 16 16 16 16 16 15 15 15 14 14 13 13 13 14 14 13 13 13 13 13 13 13 13 13 13 13 13 14 14 14 13
21 20 20 19 19 19 19 18 18 18 17 17 17 16 16 16 16 16 15 15 14 13 13 13 13 13 13 13 13 13 13 13 12 12 12 12 12 13 13 13 13 13 13
20 20 19 20 19 19 19 18 18 18 17 17 17 17 16 16 16 16 16 15 15 14 13 13 13 13 13 13 13 13 12 12 12 12 12 12 12 12 12 12 12 12 12
20 20 20 20 19 19 19 18 17 17 17 17 17 17 16 16 15 15 15 15 15 14 14 13 13 13 13 13 13 12 12 12 12 12 12 12 12 11 11 11 11 12 12
20 20 20 20 19 19 19 19 18 18 18 18 18 18 17 16 16 15 15 15 15 14 14 13 13 13 13 13 12 12 12 12 12 12 11 12 12 11 11 10 11 11 11
19 20 20 20 20 20 19 19 19 19 19 18 18 18 17 17 17 15 15 14 14 14 15 14 14 13 12 12 11 11 12 12 11 11 11 11 11 11 10 10 10 10 10
20 20 20 20 19 19 18 17 17 17 17 17 18 18 17 17 17 16 16 15 15 14 14 14 13 13 12 12 11 8 7 9 10 10 10 10 10 9 10 9 9 9 9
20 19 19 18 18 17 16 16 16 16 16 16 17 17 17 17 15 14 15 15 15 14 14 14 13 13 12 11 10 10 5 5 5 9 9 9 9 8 8 8 8 8 8
18 18 17 16 16 16 15 15 14 14 13 15 14 14 14 15 14 14 13 13 14 13 12 13 13 12 11 9 8 8 8 8 5 5 7 8 7 7 7 7 7 7 8
16 16 16 16 15 15 15 15 14 13 13 13 14 13 14 14 14 14 14 12 11 11 11 10 10 9 8 8 7 7 7 6 6 4 4 5 6 6 5 6 6 6 7
15 15 16 16 15 15 14 14 13 12 12 12 13 12 13 13 13 12 13 11 8 8 8 8 7 7 6 5 5 5 5 5 4 4 2 3 4 5 5 5 5 6 6

GFSSE_925_temp_009.txt.gz
Temp
18 18 18 19 20 19 19 19 20 20 20 20 21 21 21 20 19 19 19 18 18 18 18 19 19 19 19 19 19 20 20 20 20 20 20 20 20 20 20 20 20 19 19
19 18 18 18 19 19 19 19 20 20 20 20 20 20 20 19 19 19 18 18 18 18 19 19 19 19 19 18 18 19 19 19 19 19 19 19 19 19 20 19 19 19 19
19 18 18 19 19 19 19 19 20 20 20 20 20 20 19 19 18 18 18 18 18 19 18 18 18 17 17 17 17 18 18 18 18 18 19 19 19 19 19 19 19 19 19
19 19 19 19 19 20 20 20 19 19 20 19 19 19 19 18 18 19 18 19 19 19 18 18 16 16 16 16 16 17 17 18 18 18 18 18 18 18 19 19 19 19 18
20 19 19 19 19 20 20 19 19 19 19 18 18 18 18 18 18 18 18 18 18 18 18 17 16 16 16 16 17 17 17 17 18 18 17 18 18 17 17 18 19 18 18
20 20 20 19 19 19 19 18 18 18 18 18 17 17 17 17 17 17 17 17 17 16 16 17 17 16 16 16 16 17 16 16 17 17 17 17 17 18 18 17 18 18 18
19 19 19 19 19 19 19 19 19 19 19 19 19 18 18 18 18 18 18 17 16 15 15 16 16 16 16 16 16 16 16 17 16 16 17 17 17 18 17 18 18 18 18
20 20 20 19 20 20 20 19 19 19 19 19 18 18 18 17 17 17 17 16 16 16 16 16 16 15 15 15 15 15 15 16 16 16 17 17 17 17 17 17 18 18 18
19 19 19 19 20 20 20 20 19 19 18 18 18 18 18 17 17 17 17 16 16 16 16 16 16 15 15 15 15 15 15 15 15 15 16 16 17 17 17 17 17 17 18
19 19 20 20 20 19 19 19 19 19 18 18 18 18 18 18 17 17 17 16 16 16 16 16 16 15 15 14 14 15 15 15 15 15 15 16 16 16 16 16 16 16 17
18 19 19 20 19 19 18 18 18 18 18 18 18 17 17 17 17 17 17 16 16 16 16 16 16 15 15 15 15 15 15 14 15 14 14 15 15 16 15 16 16 16 17
18 20 19 19 19 19 18 18 18 18 18 17 17 17 16 16 16 16 16 16 15 15 15 15 15 15 15 15 15 15 14 14 13 13 14 15 15 15 14 15 15 16 16
19 19 19 19 19 19 18 18 18 18 18 17 17 17 17 16 16 16 16 16 15 15 14 14 14 14 14 14 14 14 14 13 12 12 13 14 14 15 14 13 14 15 15
19 18 19 19 19 19 18 18 18 17 17 17 17 17 17 16 16 16 16 16 15 15 14 14 14 14 14 14 14 14 14 13 12 12 12 13 13 14 14 14 13 14 14
19 20 20 19 19 19 19 18 18 17 17 17 17 17 16 16 16 16 16 16 15 15 14 14 14 14 14 14 14 13 13 13 13 12 12 13 13 13 14 15 14 13 13
20 20 20 19 19 19 19 18 18 17 17 17 17 17 16 16 16 16 16 16 16 15 14 14 13 14 14 14 13 13 13 13 13 13 12 12 12 12 13 13 14 12 12
20 19 20 20 19 20 19 18 18 18 18 17 17 17 17 17 17 16 16 16 16 15 14 13 13 13 13 13 13 13 13 13 13 12 12 12 12 12 12 12 12 12 11
20 19 19 20 20 19 19 18 18 18 18 17 17 17 17 17 16 16 16 16 16 15 15 14 13 12 13 12 12 12 12 12 12 12 12 12 12 11 12 12 12 12 12
19 19 20 20 20 19 19 18 18 18 18 18 18 17 17 17 17 16 16 16 15 15 15 14 13 13 12 12 12 12 12 12 12 12 12 12 12 11 11 11 11 11 11
19 19 19 20 20 19 18 18 18 18 18 18 17 17 17 16 16 15 15 15 15 15 15 14 13 12 12 12 12 12 12 11 12 11 11 11 11 12 10 10 10 10 11
19 20 20 20 19 17 16 17 17 17 17 17 17 17 16 16 15 15 15 14 14 13 14 14 13 12 11 11 11 12 11 11 11 11 10 10 10 11 11 10 9 9 10
19 18 17 17 16 16 16 15 15 15 16 16 16 16 16 16 16 14 14 13 13 11 11 12 11 11 11 10 12 12 14 13 10 9 10 9 9 9 9 9 9 8 8
16 16 16 16 15 15 15 15 15 15 14 14 14 14 14 14 14 14 14 13 12 11 10 11 11 11 12 11 10 13 14 13 13 10 9 9 8 8 8 8 7 8 7
15 15 15 14 14 14 14 14 13 12 12 12 11 11 12 13 13 13 13 13 12 10 9 9 10 10 10 12 9 8 8 9 12 13 9 9 8 8 7 7 7 7 7
14 14 14 14 14 14 13 13 12 11 10 10 10 10 10 11 11 12 12 12 12 11 9 8 8 7 8 9 9 8 8 8 7 10 11 10 7 7 6 6 6 6 6
14 14 15 14 14 14 13 12 11 10 9 9 10 9 10 9 9 10 10 10 9 8 6 5 5 5 5 6 5 6 7 8 8 7 7 7 6 6 6 6 6 6 6

GFSSE_925_temp_012.txt.gz
Temp
21 20 19 19 19 19 20 20 20 21 21 21 21 20 20 19 19 19 19 18 18 18 19 19 19 19 19 19 19 19 19 19 19 19 19 19 20 19 19 19 20 21 19
21 20 20 20 20 20 20 20 20 20 20 20 20 19 18 18 19 18 18 19 19 19 19 19 19 18 18 18 18 18 18 19 19 19 19 19 20 20 19 19 20 20 19
22 21 20 19 19 19 20 20 20 20 20 19 19 19 19 18 18 18 18 18 18 19 18 18 18 17 17 17 17 18 18 18 18 19 19 21 22 19 18 18 19 19 19
21 20 20 19 19 19 19 19 19 18 18 18 18 18 18 18 18 17 18 18 18 17 17 16 16 16 17 17 17 17 17 18 18 19 20 21 21 19 18 18 18 18 18
21 20 19 19 19 19 19 18 19 19 18 18 18 18 18 18 18 18 18 18 18 17 17 16 15 16 16 16 17 17 18 18 18 19 21 20 20 20 19 18 18 18 18
21 21 20 20 19 19 19 19 19 19 18 18 18 18 17 17 17 17 18 18 18 18 18 18 17 17 16 16 16 16 17 17 18 20 20 20 19 18 18 18 18 18 18
21 20 20 19 19 20 20 19 19 19 19 19 18 18 18 18 18 18 18 17 17 17 17 17 16 16 17 17 16 16 16 16 17 20 20 20 19 18 18 18 17 18 18
21 20 20 20 20 19 19 19 19 19 19 18 18 18 18 18 18 18 17 17 17 17 16 16 16 16 15 15 15 15 16 16 18 19 19 19 17 17 17 17 17 17 18
21 21 20 20 19 19 19 19 19 18 18 18 18 18 18 17 17 17 17 16 16 15 15 15 15 15 15 15 15 15 16 16 17 18 17 19 17 16 16 17 17 17 17
21 21 20 20 20 19 19 19 19 18 18 18 18 17 17 17 17 16 16 16 16 16 15 15 15 15 15 15 15 15 15 16 17 18 18 16 16 15 15 16 17 17 17
21 21 20 20 20 19 19 19 19 18 18 18 18 18 17 18 17 17 16 16 16 16 16 15 15 15 15 15 15 15 15 17 17 18 18 16 15 15 15 15 15 16 17
22 21 21 20 20 19 19 19 19 18 19 18 18 17 18 17 17 16 16 16 16 16 16 16 15 15 16 17 17 16 17 16 17 17 17 15 15 14 14 14 15 16 16
23 22 21 20 19 19 20 20 20 19 19 19 17 17 17 17 17 17 17 17 16 16 16 16 16 16 15 15 16 16 16 15 17 17 16 14 14 14 13 14 14 14 15
24 23 22 20 19 18 20 20 20 19 19 19 19 17 17 18 17 17 17 17 17 17 16 16 16 15 14 14 14 15 15 15 16 16 15 14 14 14 14 13 13 14 14
24 23 22 20 19 19 18 19 19 18 19 18 18 18 17 17 17 17 17 17 17 16 16 16 16 16 15 15 14 14 15 15 14 15 15 13 14 14 14 14 14 13 13
24 23 22 20 19 19 19 18 19 18 19 18 18 18 17 16 17 17 17 17 17 17 16 16 16 15 15 15 15 14 14 14 15 14 15 14 13 13 14 14 14 12 12
24 23 22 20 19 19 19 19 19 19 18 18 18 17 16 16 17 16 17 17 17 17 16 15 15 15 15 15 15 15 14 14 14 14 14 15 14 13 13 13 14 13 13
23 23 21 20 20 19 19 19 19 19 18 18 18 17 16 16 15 16 16 17 17 16 16 16 16 16 15 15 15 15 15 15 14 14 14 14 14 15 12 13 13 13 13
23 22 21 20 20 20 19 18 18 17 18 18 18 18 17 16 16 15 16 16 16 16 16 16 16 16 15 16 16 15 15 15 15 15 14 13 13 13 14 12 12 12 12
21 20 21 20 19 18 18 17 18 18 18 17 18 17 16 16 15 15 15 15 15 15 15 15 15 15 15 15 16 16 16 15 15 14 14 14 13 13 13 13 13 13 12
19 20 20 19 16 17 18 18 19 18 18 18 17 15 15 15 14 14 14 15 14 15 15 14 14 15 14 15 14 15 15 15 14 14 14 14 14 13 13 12 13 13 13
18 18 18 18 17 17 17 17 16 16 17 16 16 15 15 14 14 14 14 14 14 14 14 14 14 14 14 14 15 15 17 17 16 14 14 14 13 13 12 11 11 11 11
17 17 17 17 16 15 15 17 17 17 17 17 15 15 14 13 13 13 13 13 12 13 13 14 13 14 14 14 14 14 16 16 17 17 13 13 13 12 12 11 10 10 10
16 16 16 16 16 15 14 15 14 15 15 14 14 13 12 12 12 12 12 11 12 12 12 12 13 12 13 13 14 14 13 14 16 16 14 13 12 11 11 10 11 10 10
16 15 15 16 15 14 14 13 14 14 13 13 13 12 12 13 12 12 11 10 10 10 11 10 10 10 11 11 12 12 12 12 12 12 15 13 12 11 10 10 9 9 9
16 15 15 15 15 14 13 12 12 12 12 12 12 12 12 11 11 11 10 9 8 8 8 8 7 7 7 7 7 8 8 7 9 9 12 13 14 11 10 9 9 8 9

GFSSE_925_temp_015.txt.gz
Temp
25 21 20 21 21 20 20 20 20 20 20 20 20 19 19 19 19 18 18 18 19 19 19 19 19 19 19 19 19 20 20 20 19 19 20 20 21 20 20 20 20 19 19
24 22 20 20 20 19 20 20 20 19 19 19 19 18 18 18 18 18 18 18 19 19 19 18 18 17 18 18 18 19 19 19 19 19 20 21 20 20 20 19 19 19 19
24 22 20 19 19 19 19 19 19 19 19 19 19 19 18 18 18 18 18 19 19 19 18 17 16 17 17 17 17 18 18 18 19 19 20 21 21 20 20 19 19 19 19
24 24 20 19 19 19 19 19 19 19 19 19 19 18 18 18 18 18 18 18 18 17 17 16 16 16 17 17 17 17 17 18 18 19 20 21 21 21 20 20 19 19 18
24 22 20 19 19 19 19 19 19 19 19 19 19 18 18 18 18 18 18 18 18 18 17 16 16 17 17 17 17 17 17 17 18 19 21 21 22 20 19 18 19 18 18
24 22 20 19 19 19 19 19 18 18 19 18 18 18 18 18 18 18 18 18 17 17 17 17 17 17 17 17 17 17 17 17 18 19 21 21 20 20 19 19 18 18 18
24 22 20 20 20 20 19 19 19 19 18 18 18 17 17 17 18 18 17 17 17 17 17 17 16 16 16 16 16 16 17 17 17 20 20 20 20 19 18 18 18 18 18
23 23 21 21 20 20 19 19 18 18 18 18 17 17 17 17 17 17 17 17 17 17 17 17 16 16 16 16 16 16 16 17 17 20 20 19 19 18 17 17 17 17 17
24 23 23 21 20 20 20 19 19 18 18 18 18 18 18 17 17 17 17 17 17 17 17 16 16 16 16 16 16 16 16 17 18 20 20 18 17 17 17 16 17 17 17
24 24 23 23 23 22 19 20 19 19 18 18 18 18 18 18 18 17 17 16 17 16 16 16 16 16 16 16 16 16 17 17 18 20 21 18 18 17 15 15 16 17 17
24 24 24 23 22 22 22 20 19 19 19 19 18 18 18 19 19 19 17 17 16 16 16 16 16 16 16 16 17 17 17 18 19 20 20 17 17 16 15 14 15 16 17
25 24 24 23 22 22 22 21 21 21 21 20 20 19 20 19 19 18 18 17 17 17 16 16 17 16 17 18 18 17 18 18 18 19 19 17 17 15 15 15 15 15 16
25 25 24 22 21 22 22 22 23 22 21 21 20 19 19 19 19 19 19 19 19 18 18 17 18 18 17 17 17 17 18 17 19 19 18 17 16 14 14 15 15 15 15
26 25 24 23 21 21 22 23 22 22 22 21 21 19 19 20 19 19 19 19 19 19 18 18 18 18 17 16 16 16 16 17 18 18 18 17 16 15 15 14 14 15 15
26 26 25 23 21 22 21 22 21 21 21 20 20 20 19 19 19 19 18 18 19 19 18 18 18 18 18 17 17 16 16 16 16 16 18 16 15 15 15 15 14 14 14
27 26 25 24 22 22 22 21 21 20 21 20 20 20 19 18 18 18 18 18 19 19 19 18 18 17 17 17 17 17 16 16 17 16 17 16 15 14 14 14 14 13 14
26 26 25 24 23 21 21 21 21 21 20 21 20 19 19 18 18 18 18 18 18 18 18 18 18 18 17 17 17 17 16 16 15 16 16 16 15 15 14 13 13 13 13
26 26 25 24 22 21 22 21 21 21 20 20 20 19 18 18 17 17 18 18 18 17 17 18 18 18 18 18 18 17 17 17 17 16 15 15 16 16 14 14 13 13 13
26 25 25 23 22 22 21 21 20 20 19 21 20 20 19 18 17 17 17 17 17 17 17 17 17 17 17 17 17 18 18 17 17 17 16 16 15 15 16 14 14 13 13
24 24 24 22 22 21 21 20 20 20 20 20 20 19 18 17 16 16 16 16 16 16 16 17 16 16 16 16 17 18 17 18 17 17 17 16 15 14 14 14 13 13 13
22 23 23 21 19 20 21 20 21 20 20 20 19 18 17 17 16 15 16 16 15 16 16 15 15 16 16 16 16 16 17 16 17 16 16 16 16 15 14 14 14 15 13
21 21 20 20 19 19 20 19 18 18 19 18 18 17 17 16 15 15 15 15 15 15 14 14 14 15 15 15 16 16 17 17 18 17 16 16 16 16 15 14 13 13 14
20 20 20 19 18 17 18 19 19 19 19 19 18 17 16 15 14 14 14 14 13 13 14 14 14 14 15 15 15 16 16 16 18 18 18 16 16 15 15 15 13 13 12
19 18 18 18 18 17 16 17 16 17 17 17 16 16 15 14 14 14 14 13 12 11 12 12 13 13 13 13 14 14 15 15 14 14 16 16 15 15 14 14 14 12 12
19 18 18 18 18 17 16 15 15 15 15 15 15 14 13 14 13 13 13 12 11 11 11 10 10 10 10 11 11 11 10 11 11 10 11 14 14 13 13 12 13 12 12
18 18 18 18 18 17 16 15 14 14 14 14 14 13 13 12 12 11 11 10 10 10 10 9 8 6 6 5 4 4 3 4 5 5 6 10 10 11 11 10 10 11 10

GFSSE_925_temp_021.txt.gz
Temp
19 20 21 20 20 20 20 20 20 19 19 19 19 19 19 19 19 19 19 18 18 18 18 19 18 18 19 19 19 19 20 20 20 20 19 19 19 19 20 20 19 19 19
20 19 20 20 20 20 19 19 19 19 19 19 19 19 19 19 19 19 19 19 19 19 19 18 17 18 18 18 18 18 18 19 19 19 20 20 19 19 19 19 19 19 19
20 20 20 20 19 19 19 19 19 19 19 19 18 18 18 18 18 18 18 18 18 18 18 18 18 18 18 17 17 18 18 18 18 18 19 19 19 18 17 18 19 19 19
20 20 20 20 19 19 19 19 19 19 18 18 18 18 18 18 18 18 18 18 18 18 18 18 18 18 18 18 18 18 18 18 18 19 19 19 19 18 18 17 18 18 18
20 20 19 19 19 19 19 19 19 18 18 17 17 17 18 18 18 18 18 18 18 18 18 18 18 18 17 17 17 18 18 18 19 19 18 18 19 18 19 18 17 18 18
20 19 19 20 19 19 19 19 19 19 18 18 18 18 18 18 18 18 18 18 18 18 18 18 18 18 18 18 18 17 18 18 18 18 18 18 18 17 18 17 17 18 18
20 20 20 20 20 20 20 19 19 19 19 19 19 18 18 18 18 18 17 17 17 17 17 17 18 18 18 18 18 18 18 18 18 18 18 18 19 18 18 18 17 18 18
21 21 21 20 21 21 20 20 19 19 19 19 19 19 19 18 18 18 18 18 18 18 18 18 18 18 18 18 18 18 19 19 18 18 17 17 19 18 19 19 18 18 17
22 22 21 22 21 21 20 20 19 19 19 19 19 19 18 18 18 18 18 18 18 18 18 18 17 17 18 18 18 18 18 18 18 18 18 17 17 18 18 18 18 17 17
23 23 22 22 21 21 21 20 20 20 20 19 19 19 19 18 18 18 18 18 18 18 17 17 17 17 17 17 17 17 18 18 18 18 18 17 17 18 18 18 17 17 17
23 23 22 21 21 21 21 21 20 20 20 19 19 19 18 18 18 19 18 18 18 18 17 17 18 17 17 17 17 17 17 17 17 17 18 18 17 18 18 18 17 17 16
23 22 22 22 22 21 21 21 21 20 20 19 19 19 19 19 19 18 18 18 18 18 18 18 18 18 17 17 17 17 17 17 17 17 17 17 17 18 18 18 17 16 16
24 23 22 22 22 22 21 21 21 20 20 19 19 19 19 19 19 19 18 18 18 18 18 18 18 18 18 17 17 17 17 17 17 17 17 17 17 17 17 18 17 16 15
24 23 23 23 22 22 22 21 20 21 20 20 19 19 19 19 19 18 18 18 18 18 18 18 18 18 18 18 17 17 17 17 16 16 16 16 16 17 17 17 17 16 15
24 23 23 23 23 22 21 21 21 21 21 20 20 20 19 18 18 18 18 18 18 18 18 18 18 18 17 17 17 17 17 17 17 17 16 16 16 16 16 17 16 16 15
25 23 22 21 21 21 21 21 21 20 21 20 20 20 19 19 18 18 18 17 18 18 18 17 17 17 17 17 17 17 17 17 17 17 17 16 16 16 16 16 16 16 14
25 23 22 20 18 21 21 21 21 20 21 20 20 20 20 19 18 18 17 17 17 17 17 17 17 16 16 17 17 17 17 17 17 17 17 17 16 16 16 16 16 16 15
25 22 22 21 19 19 20 21 21 20 20 20 20 19 19 18 17 17 17 17 16 16 16 16 16 16 16 16 16 16 16 16 17 17 17 17 16 16 16 16 16 16 16
24 24 21 19 19 19 20 21 20 20 20 20 20 19 18 17 17 17 16 16 15 15 15 14 14 14 14 14 14 14 15 15 15 16 16 16 16 16 15 16 15 15 15
22 21 20 19 19 20 20 21 20 19 19 19 18 18 18 17 17 16 15 15 14 14 14 14 14 13 13 13 13 13 14 14 15 15 15 16 16 16 16 15 15 15 15
20 20 20 20 20 20 20 19 19 18 19 19 18 17 17 15 15 14 14 14 13 13 13 13 12 12 12 12 11 12 12 13 13 14 14 15 15 16 16 16 15 15 15
20 19 19 19 19 18 18 18 17 17 17 16 16 15 14 14 13 13 13 12 12 11 11 11 11 11 11 10 10 10 9 11 12 12 13 13 13 13 13 13 13 14 15
19 19 18 18 18 18 17 18 17 17 17 16 15 14 13 13 12 11 11 11 10 10 10 10 10 9 8 8 8 7 6 7 6 10 11 11 11 11 11 10 12 13 13
18 18 18 18 18 18 17 16 15 15 14 14 13 12 12 11 11 10 10 10 9 9 9 9 8 8 8 6 7 7 5 4 6 6 9 8 9 6 7 8 8 9 10
18 18 18 18 17 17 17 16 15 14 13 12 11 11 10 10 10 9 8 8 8 7 7 7 7 6 6 4 3 3 4 4 4 2 4 4 4 4 5 5 6 7 7
18 18 18 17 17 16 15 14 14 13 12 11 10 9 9 9 8 8 7 7 7 6 6 5 5 5 4 4 3 3 3 2 3 2 2 3 2 3 3 5 4 5 5

GFSSE_925_temp_024.txt.gz
Temp
18 19 20 20 20 20 20 20 20 20 19 19 19 19 18 18 18 18 18 18 18 18 18 19 19 19 19 19 19 19 19 18 18 18 18 19 18 19 19 19 18 19 19
18 19 20 20 20 20 20 20 19 19 19 18 18 18 18 18 18 18 18 18 18 17 16 17 18 18 18 18 18 18 19 19 18 18 18 18 19 18 19 19 19 18 19
19 19 20 20 20 20 19 19 19 19 18 18 18 18 18 18 18 18 18 19 19 19 18 18 18 18 18 18 18 18 18 18 18 18 18 18 18 18 19 20 20 19 19
20 19 19 19 19 19 19 19 19 19 18 18 18 18 18 18 19 19 19 18 18 19 18 18 18 18 18 18 18 17 17 17 17 18 19 19 18 18 19 19 19 18 18
19 19 19 19 19 19 19 19 18 18 18 18 18 18 18 19 18 18 18 18 18 18 18 18 18 18 18 18 18 18 18 17 17 17 18 18 19 19 19 18 18 18 18
19 19 19 19 19 19 19 19 19 18 18 18 18 19 18 18 18 18 18 18 18 19 19 19 18 18 18 18 18 18 18 17 17 17 17 18 18 19 18 19 18 18 18
18 19 19 19 20 20 19 19 19 19 19 19 19 18 18 18 18 19 19 19 19 19 19 18 18 18 18 18 18 18 17 17 17 17 17 17 17 18 18 18 18 18 18
20 19 20 20 20 20 20 19 19 19 19 19 19 19 18 19 19 19 18 18 18 18 18 18 18 17 17 17 17 17 17 17 17 17 18 17 17 18 18 17 18 18 18
21 21 20 20 20 20 20 20 20 19 19 19 19 19 19 19 19 18 18 18 18 18 17 17 17 17 17 17 17 17 17 17 17 17 17 17 17 18 17 18 18 18 17
21 21 21 21 21 21 21 20 20 20 19 19 19 18 18 18 18 18 18 18 18 18 17 18 17 17 17 17 17 17 17 17 17 17 16 17 17 17 17 17 17 17 17
20 21 21 21 21 21 20 20 20 19 19 19 19 18 18 18 18 18 18 18 18 18 18 18 18 17 17 17 17 17 17 17 17 16 16 16 16 16 16 17 17 17 17
19 21 21 21 21 21 20 20 20 20 19 19 19 19 19 18 18 18 18 18 18 18 18 18 18 18 17 17 17 17 17 17 17 17 16 16 16 16 16 16 17 17 17
21 21 21 21 21 21 20 20 20 20 19 19 19 19 18 18 18 18 18 18 18 18 18 18 18 17 17 17 17 17 17 17 17 17 17 16 16 16 16 16 17 17 16
22 22 21 21 21 21 21 21 20 20 19 19 19 19 19 18 18 18 18 18 18 18 18 18 18 17 17 17 17 17 17 17 17 17 17 17 17 16 16 16 16 16 16
21 21 22 21 21 21 21 21 20 20 19 19 19 19 19 19 18 18 18 17 17 17 17 17 17 16 16 16 17 17 17 17 17 17 17 17 17 17 16 16 16 16 16
21 21 22 22 22 21 21 21 20 20 20 19 19 20 19 19 18 18 17 17 17 16 16 16 16 16 15 15 15 16 16 16 16 16 16 17 17 17 17 16 16 16 16
21 21 22 22 22 21 21 21 20 20 20 20 20 19 18 18 18 17 17 17 16 16 16 16 15 15 15 15 14 15 15 15 15 15 15 15 16 16 17 17 17 16 16
21 21 21 21 21 20 20 20 20 20 20 19 19 19 18 18 17 17 16 16 15 15 15 15 14 14 14 13 13 13 13 14 14 15 15 15 15 15 16 16 16 16 16
20 21 20 20 21 19 20 19 20 20 19 19 18 17 17 16 16 15 15 14 14 14 14 13 13 13 12 12 12 11 12 13 13 13 14 14 14 15 15 15 16 16 16
19 19 19 19 19 19 18 18 18 19 18 17 16 15 15 14 14 14 13 13 13 13 13 12 12 12 11 11 11 11 11 12 12 12 13 13 13 13 12 12 14 15 15
17 17 17 17 18 18 18 18 18 16 15 15 15 14 14 13 13 12 12 11 11 11 10 10 10 10 10 10 9 9 9 11 11 11 11 10 10 11 11 11 10 12 13
17 17 18 18 18 18 17 16 16 16 15 14 13 13 12 12 12 11 10 10 10 9 10 10 9 9 9 8 7 8 7 9 8 9 9 9 8 8 9 9 9 10 10
17 17 18 18 18 18 18 17 17 17 15 13 12 12 11 11 11 10 9 8 8 8 8 8 8 7 7 7 6 5 6 6 5 8 7 7 7 7 7 7 8 8 9
18 18 17 17 17 17 16 16 15 14 13 11 11 11 11 10 10 9 8 7 7 7 7 7 6 6 5 4 5 5 4 4 4 4 6 5 4 5 4 5 5 6 7
18 18 17 17 17 16 15 15 14 13 12 11 11 11 10 9 8 8 7 7 6 6 5 5 5 4 3 3 3 3 3 3 3 2 2 3 2 2 3 4 4 4 5
18 17 17 16 16 16 15 14 14 12 11 11 10 10 9 8 7 7 7 6 5 5 4 4 3 3 3 3 3 2 2 2 2 2 2 2 2 2 2 3 3 4 4

GFSSE_925_temp_027.txt.gz
Temp
18 18 19 20 20 20 20 20 20 20 19 19 19 19 19 19 19 19 19 19 19 18 18 18 18 19 19 19 18 18 17 17 18 18 19 19 19 19 19 19 19 19 19
18 19 19 20 20 20 20 19 19 19 19 19 19 18 18 18 18 18 18 18 17 16 16 17 17 17 18 18 18 18 17 17 17 18 18 18 19 19 19 19 19 19 19
18 18 19 20 19 19 19 19 19 19 18 18 18 18 18 18 18 18 18 18 18 17 16 17 18 18 17 18 17 17 17 17 17 18 18 18 19 19 19 19 18 18 18
18 18 19 19 19 19 19 19 18 18 18 18 18 18 18 18 18 19 19 19 19 19 18 18 18 18 18 18 18 17 17 17 18 18 18 18 19 18 18 19 19 18 18
18 18 19 19 19 19 19 19 18 18 18 18 18 18 19 19 19 19 19 19 19 19 18 18 18 18 18 17 17 17 17 17 17 17 18 18 18 18 19 19 19 19 18
18 18 18 19 19 19 19 18 19 19 18 18 19 19 19 19 19 19 19 19 19 18 18 18 18 18 17 17 17 17 17 17 17 17 18 18 18 18 18 18 18 19 19
18 18 19 19 19 19 19 19 19 19 19 19 19 19 19 19 19 18 18 18 18 18 18 18 17 17 17 17 17 17 16 17 17 17 17 17 18 18 18 18 18 18 18
19 19 19 19 19 19 19 19 19 19 19 19 19 19 19 19 18 18 18 18 18 17 17 17 17 17 17 17 17 17 17 17 17 17 17 17 17 17 17 17 18 18 18
20 20 20 20 20 19 19 19 19 19 19 19 19 19 18 18 18 18 18 18 18 18 18 17 17 17 17 17 17 17 17 17 17 17 17 17 16 17 17 17 17 18 18
20 21 20 20 20 19 19 20 20 20 19 19 18 18 18 18 18 18 18 18 17 18 18 18 17 17 17 17 17 17 17 17 17 17 17 17 17 17 16 17 17 17 17
20 20 20 20 20 20 20 20 19 19 19 18 18 18 18 18 18 18 18 18 17 17 18 17 17 17 17 17 17 17 17 17 17 17 17 16 16 16 15 15 16 16 16
19 19 20 20 20 20 20 20 19 19 19 18 18 18 18 18 18 18 18 17 17 17 17 17 17 17 17 17 17 17 17 17 17 17 16 16 16 16 16 16 16 16 16
20 20 20 20 20 20 20 20 19 19 19 19 18 18 18 18 18 18 17 17 17 17 17 17 17 16 16 16 16 16 16 16 17 17 17 17 17 16 16 16 16 16 16
19 20 21 20 20 20 20 20 20 20 19 19 19 18 18 18 18 18 17 17 17 17 16 16 16 16 16 16 16 15 15 15 15 16 16 16 17 17 17 16 15 15 15
19 20 21 20 20 20 20 20 20 20 19 19 19 18 18 18 18 18 17 17 17 17 16 16 16 16 16 15 15 15 15 15 15 15 15 15 15 16 16 17 16 15 15
20 21 21 20 20 20 20 21 20 20 19 19 19 18 18 18 18 17 17 17 16 16 15 15 15 15 14 14 14 14 14 14 14 14 14 15 15 15 15 15 16 16 16
21 21 20 20 20 20 20 20 19 19 19 19 18 18 18 17 16 16 15 15 15 14 14 14 14 14 14 13 13 13 13 13 13 13 13 14 14 14 14 15 15 15 16
21 20 19 19 19 19 19 19 18 18 18 18 17 17 16 15 15 15 14 14 13 13 13 13 13 13 12 12 12 12 12 12 12 12 12 12 12 12 13 13 14 14 15
20 19 18 18 17 17 17 17 17 18 17 17 16 15 15 14 14 14 13 12 12 12 12 12 11 11 11 11 11 11 11 11 11 10 10 10 10 10 11 11 12 13 13
17 17 17 16 16 16 17 17 17 16 15 15 15 14 14 14 13 13 13 12 11 11 11 11 10 10 10 8 9 9 9 10 9 9 9 9 9 9 9 9 10 10 11
16 16 17 17 17 17 17 16 16 14 14 14 14 13 13 13 13 12 11 11 10 9 8 8 8 8 8 8 8 7 8 9 8 8 7 8 7 8 8 8 8 9 9
17 17 18 18 18 17 17 16 15 14 14 14 13 13 12 12 11 10 10 10 9 8 8 7 7 7 7 6 5 6 4 7 7 6 6 7 7 7 7 6 6 7 8
17 18 18 18 18 17 17 17 15 14 13 12 11 11 10 10 10 10 9 8 8 7 7 6 6 5 5 5 4 4 3 3 4 6 6 6 6 5 5 5 4 5 6
17 17 17 17 17 17 17 17 17 16 13 11 10 10 10 10 10 9 8 8 7 6 6 5 5 5 4 3 4 4 3 3 3 3 5 4 4 4 3 3 3 4 4
15 16 16 16 16 15 15 15 15 14 13 11 11 10 10 9 9 8 8 7 6 5 5 5 4 4 3 3 2 2 2 2 2 2 2 2 3 2 2 3 3 3 4
15 15 15 15 15 15 15 14 13 13 11 11 10 11 11 10 9 8 7 7 6 5 5 4 4 3 3 3 2 2 1 1 2 2 2 2 2 2 2 3 3 3 3